CZ-4C DEB, 44613

Orbit data source: Space-Track

CZ-4C DEB, 44613 is space debris in SSO originally from a launch on Tue, 14 Nov 2017 UTC launched from the Taiyaun Space Center, China (TSC). Debris objects in space refer to the collection of defunct objects orbiting the Earth. Examples of debris include non-operational satellites, rocket bodies, and fragments generated from explosions, collisions, or faulty payload assembly.

Loading next visibility...
Identifier
44613, 2017-072D
Orbit
SSO
Country
Flag of CNCN / PRC
Related business
Manufacturer
Unknown
Mission
Spacecraft
Bus & Motor
Unknown
Mass
Unknown
Launch date (UTC)
2017-11-14 (8 years ago)
Launch vehicle
Unknown
Launch site
Taiyaun Space Center, China (TSC)
Object type
Payload
Rocket body
Debris
Shape & HBR
Unknown
Radar Cross Section
Small (<0.1 m²)

Expand to show TLE details & history
Last TLE update: 1 day ago

TLE from 1 day ago
0 CZ-4C DEB
1 44613U 17072D   25260.37924365  .00000255  00000-0  23223-3 0  9996
2 44613  98.5304 317.5139 0229788   9.5681 350.9741 13.79804825380314
Epoch: 2025-09-17T09:06Z
TLE epoch observation values (Epoch: 2025-09-17T09:06:06.651Z)
Latitude
-0.00003°
Longitude
-175.56985°
Altitude
800.874 km
Speed
7.537 km/s
True Right ascension
21h 10m 03s
True Declination
0° 00' 00"
Sunlit
Object was in full shadow at epoch
Visualization orbit readout
Latitude
Unknown
Longitude
Unknown
Altitude
Unknown
Speed
Unknown
Apparent Right ascension
Unknown
Apparent Declination
Unknown
Sunlit
N/A
Visualization observer readout
Local Sidereal Time
02:24:54
Azimuth
Unknown
Elevation
Unknown
Doppler factor
Unknown
Orbital elements
Apogee altitude
1,130.444 km
Perigee altitude
793.119 km
Semi-major axis
7,339.918 km
Eccentricity
0.02298
Inclination
98.5304°
RAAN
317.5139°
Arg. of periapsis
9.5681°
True anomaly
350.54896°
Mean anomaly
350.9741°
Eccentric anomaly
350.76276°
Mean motion
3.45149 °/min
Orbital period
104.3 mins
BSTAR
0.00023223
Loading maneuver chart data...
Computing Atmospheric mass density...
Loading historical data...
Loading historical data...
Loading historical data...
Loading historical data...
Loading historical data...
Loading historical data...
Loading historical data...
Other satellites on launch #72 in the year 2017 (2017-11-14 UTC)

Documentation

Showing up to 5 results
|